Home > Weather > Havana > Past weeks

Flag for Cuba Past Weather in Havana, Cuba — Yesterday and Last 2 Weeks

Now
86 °F

Partly sunny.


Feels Like: 92 °F
Forecast: N/A
Wind: 14 mph from Northeast

Location: Aeropuerto Jose Marti - Rancho-Boyeros - Habana

Current Time: Aug 24, 2016 at 5:51:00 PM

Latest Report: Aug 24, 2016 at 4:55 PM


Visibility: N/A

Pressure: 29.95 "Hg

Humidity: 62%

Dew Point: 72 °F

Location of HavanaLocation

Past Weather in Havana — Graph

°F

Havana Temperature Yesterday

Maximum temperature yesterday: 91 °F (at 1:55 PM)
Minimum temperature yesterday: 73 °F (at 5:55 AM)
Average temperature yesterday: 82 °F

High & Low Weather Summary for the Past Weeks

 TemperatureHumidityPressure
High93 °F (Aug 22, 2:55 PM)94% (Aug 16, 1:55 AM)30.12 "Hg (Aug 16, 1:55 AM)
Low72 °F (Aug 14, 1:55 AM)44% (Aug 19, 1:55 PM)29.92 "Hg (Aug 12, 4:55 PM)
Average81 °F76%30.03 "Hg
* Reported Aug 9 3:55 PM — Aug 24 3:55 PM, Havana, Weather by CustomWeather, © 2016

Note: Actual official high and low records may vary slightly from our data, if they occured in-between our weather recording intervals... More about our weather records

Advertising

Havana Weather History for the Previous 24 Hours

Scroll right to see more
 ConditionsComfort  
Time TempWeatherWind HumidityBarometerVisibility
3:55 PM
Wed, Aug 24
90 °FPartly sunny.15 mph55%29.98 "HgN/A
2:55 PM86 °FPartly sunny.10 mph66%30.01 "HgN/A
1:55 PM88 °FPartly sunny.13 mph59%30.01 "HgN/A
12:55 PM91 °FPartly sunny.13 mph52%30.04 "HgN/A
11:55 AM90 °FPartly sunny.10 mph55%30.04 "HgN/A
10:55 AM88 °FPartly sunny.10 mph66%30.04 "HgN/A
9:55 AM86 °FPartly sunny.8 mph70%30.04 "HgN/A
8:55 AM82 °FScattered clouds.5 mph79%30.04 "Hg5 mi
7:55 AM75 °FPassing clouds.No wind89%30.04 "Hg5 mi
6:55 AM75 °FPassing clouds.2 mph89%30.04 "Hg6 mi
5:55 AM73 °FPassing clouds.1 mph89%30.04 "Hg6 mi
4:55 AM73 °FPassing clouds.No wind94%30.04 "Hg6 mi
3:55 AM75 °FPassing clouds.No wind89%30.04 "Hg6 mi
2:55 AM77 °FPassing clouds.2 mph83%30.07 "Hg6 mi
1:55 AM77 °FPassing clouds.7 mph83%30.07 "Hg6 mi
12:55 AM77 °FPassing clouds.5 mph83%30.07 "Hg6 mi
11:55 PM
Tue, Aug 23
79 °FPassing clouds.7 mph79%30.07 "Hg6 mi
10:55 PM81 °FPassing clouds.7 mph74%30.07 "Hg6 mi
9:55 PM81 °FPassing clouds.10 mph74%30.07 "Hg6 mi
8:55 PM81 °FPassing clouds.8 mph74%30.07 "Hg6 mi
7:55 PM82 °FPassing clouds.13 mph70%30.04 "Hg6 mi
6:55 PM86 °FScattered clouds.15 mph62%30.04 "Hg6 mi
5:55 PM90 °FPassing clouds.14 mph55%30.04 "Hg6 mi
Weather by CustomWeather, © 2016

See weather overviewHow to use our weather pages